| time (UTC) | temp C | wind direction | speed KPH | gust KPH | rain 1hr cm | rain 24hr cm | rain mn cm | humidity % | barometer mb |
| 20260503230103 | 17 | 63 | 0.0 | 6.4 | 0.00 | 0.00 | 0.00 | 49 | 1015.6 |
| 20260503224559 | 18 | 243 | 0.0 | 4.8 | 0.00 | 0.00 | 0.00 | 49 | 1015.7 |
| 20260503223059 | 18 | 84 | 0.0 | 8.0 | 0.00 | 0.00 | 0.00 | 47 | 1015.7 |
| 20260503221557 | 17 | 58 | 0.0 | 8.0 | 0.00 | 0.00 | 0.00 | 48 | 1015.8 |
| 20260503220058 | 17 | 2 | 0.0 | 9.7 | 0.00 | 0.00 | 0.00 | 47 | 1015.9 |
| 20260503214558 | 17 | 334 | 0.0 | 9.7 | 0.00 | 0.00 | 0.00 | 48 | 1016.1 |
| 20260503213123 | 18 | 48 | 3.2 | 9.7 | 0.00 | 0.00 | 0.00 | 46 | 1016.1 |
| 20260503211617 | 18 | 40 | 0.0 | 9.7 | 0.00 | 0.00 | 0.00 | 47 | 1016.3 |
| 20260503210048 | 18 | 284 | 0.0 | 11.3 | 0.00 | 0.00 | 0.00 | 46 | 1016.4 |
| 20260503204601 | 18 | 303 | 1.6 | 6.4 | 0.00 | 0.00 | 0.00 | 45 | 1016.7 |
| 20260503203044 | 18 | 63 | 3.2 | 16.1 | 0.00 | 0.00 | 0.00 | 47 | 1016.9 |
| 20260503201540 | 18 | 70 | 1.6 | 11.3 | 0.00 | 0.00 | 0.00 | 46 | 1017.1 |
| 20260503200038 | 18 | 73 | 1.6 | 12.9 | 0.00 | 0.00 | 0.00 | 47 | 1017.5 |
| 20260503194537 | 17 | 257 | 1.6 | 11.3 | 0.00 | 0.00 | 0.00 | 46 | 1017.9 |
| 20260503193035 | 17 | 211 | 3.2 | 9.7 | 0.00 | 0.00 | 0.00 | 45 | 1018.1 |
| 20260503191544 | 18 | 32 | 3.2 | 11.3 | 0.00 | 0.00 | 0.00 | 43 | 1018.3 |
| 20260503190033 | 17 | 104 | 0.0 | 8.0 | 0.00 | 0.00 | 0.00 | 44 | 1018.6 |
| 20260503184530 | 17 | 293 | 6.4 | 12.9 | 0.00 | 0.00 | 0.00 | 41 | 1018.7 |
| 20260503183035 | 17 | 49 | 0.0 | 9.7 | 0.00 | 0.00 | 0.00 | 44 | 1018.9 |
| 20260503181523 | 17 | 46 | 0.0 | 12.9 | 0.00 | 0.00 | 0.00 | 46 | 1019.1 |
| 20260503180029 | 17 | 39 | 6.4 | 12.9 | 0.00 | 0.00 | 0.00 | 48 | 1019.3 |
| 20260503174524 | 17 | 259 | 1.6 | 8.0 | 0.00 | 0.00 | 0.00 | 45 | 1019.7 |
| 20260503173019 | 16 | 66 | 1.6 | 9.7 | 0.00 | 0.00 | 0.00 | 50 | 1019.9 |
| 20260503171519 | 16 | 107 | 1.6 | 9.7 | 0.00 | 0.00 | 0.00 | 48 | 1020.0 |
| 20260503090107 | 5 | 153 | 0.0 | 0.0 | 0.00 | 0.00 | 0.00 | 91 | 1019.0 |
| 20260503081559 | 6 | 153 | 0.0 | 0.0 | 0.00 | 0.00 | 0.00 | 90 | 1018.6 |
| 20260503071606 | 6 | 207 | 0.0 | 4.8 | 0.00 | 0.00 | 0.00 | 89 | 1017.9 |
| 20260503054553 | 6 | 105 | 0.0 | 0.0 | 0.00 | 0.00 | 0.00 | 89 | 1017.6 |
| 20260503053040 | 6 | 162 | 0.0 | 0.0 | 0.00 | 0.00 | 0.00 | 88 | 1017.5 |
| 20260503051547 | 6 | 181 | 0.0 | 0.0 | 0.00 | 0.00 | 0.00 | 87 | 1017.5 |
| 20260503050036 | 6 | 181 | 0.0 | 0.0 | 0.00 | 0.00 | 0.00 | 87 | 1017.3 |
| 20260503044534 | 7 | 181 | 0.0 | 0.0 | 0.00 | 0.00 | 0.00 | 85 | 1017.4 |
| 20260503043030 | 7 | 207 | 0.0 | 0.0 | 0.00 | 0.00 | 0.00 | 84 | 1017.3 |
| 20260503041532 | 7 | 99 | 0.0 | 0.0 | 0.00 | 0.00 | 0.00 | 83 | 1017.3 |
| 20260503040025 | 8 | 113 | 0.0 | 0.0 | 0.00 | 0.00 | 0.00 | 82 | 1017.3 |
| 20260503034524 | 8 | 121 | 0.0 | 0.0 | 0.00 | 0.00 | 0.00 | 80 | 1017.2 |
| 20260503033021 | 8 | 163 | 0.0 | 0.0 | 0.00 | 0.00 | 0.00 | 78 | 1017.0 |
| 20260503031523 | 9 | 172 | 0.0 | 3.2 | 0.00 | 0.00 | 0.00 | 76 | 1016.9 |
| 20260503030026 | 10 | 105 | 0.0 | 8.0 | 0.00 | 0.00 | 0.00 | 75 | 1016.9 |
| 20260503024520 | 10 | 134 | 0.0 | 1.6 | 0.00 | 0.00 | 0.00 | 74 | 1016.8 |
| 20260503023020 | 10 | 77 | 0.0 | 0.0 | 0.00 | 0.00 | 0.00 | 74 | 1016.9 |
| 20260503021519 | 10 | 120 | 0.0 | 12.9 | 0.00 | 0.00 | 0.00 | 71 | 1016.9 |
| 20260503020017 | 11 | 94 | 0.0 | 4.8 | 0.00 | 0.00 | 0.00 | 69 | 1016.8 |
| 20260503014514 | 11 | 134 | 0.0 | 8.0 | 0.00 | 0.00 | 0.00 | 64 | 1016.4 |
| 20260503013025 | 12 | 282 | 0.0 | 6.4 | 0.00 | 0.00 | 0.00 | 63 | 1016.0 |
| 20260503011509 | 11 | 128 | 0.0 | 6.4 | 0.00 | 0.00 | 0.00 | 64 | 1015.5 |
| 20260503010007 | 11 | 141 | 0.0 | 0.0 | 0.00 | 0.00 | 0.00 | 65 | 1015.2 |
| 20260503004506 | 11 | 119 | 0.0 | 0.0 | 0.00 | 0.00 | 0.00 | 62 | 1014.9 |
| 20260503003008 | 11 | 119 | 0.0 | 0.0 | 0.00 | 0.00 | 0.00 | 60 | 1014.7 |
| 20260503001505 | 12 | 119 | 0.0 | 0.0 | 0.00 | 0.00 | 0.00 | 58 | 1014.6 |
| 20260503000004 | 12 | 119 | 0.0 | 0.0 | 0.00 | 0.00 | 0.00 | 56 | 1014.3 |
| 20260502234504 | 13 | 148 | 0.0 | 0.0 | 0.00 | 0.00 | 0.00 | 54 | 1014.1 |
| 20260502233004 | 14 | 125 | 0.0 | 0.0 | 0.00 | 0.00 | 0.00 | 52 | 1013.9 |
| 20260502231503 | 14 | 182 | 0.0 | 4.8 | 0.00 | 0.00 | 0.00 | 50 | 1013.9 |